"Period start","avg(HW err(1)/warn(2) (#))","avg(Visibility (m))","avg(Weather code (#))","avg(Precip intensity (mm/h))","min(HW err(1)/warn(2) (#))","max(HW err(1)/warn(2) (#))","std(HW err(1)/warn(2) (#))","med(HW err(1)/warn(2) (#))","min(Visibility (m))","max(Visibility (m))","std(Visibility (m))","med(Visibility (m))","min(Weather code (#))","max(Weather code (#))","std(Weather code (#))","med(Weather code (#))","min(Precip intensity (mm/h))","max(Precip intensity (mm/h))","std(Precip intensity (mm/h))","med(Precip intensity (mm/h))"
2014-10-03 00:00:00,2,1948,10,0.00,2,2,0,2,1132,5275,1151,1607,10,10,0,10,0.00,0.00,0.00,0.00
2014-10-03 00:10:00,2,620,24,0.00,2,2,0,2,286,1500,385,482,10,34,11,32,0.00,0.00,0.00,0.00
2014-10-03 00:20:00,2,1262,33,0.00,2,2,0,2,278,2674,821,1204,31,34,1,34,0.00,0.00,0.00,0.00
2014-10-03 00:30:00,2,1321,31,0.00,2,2,0,2,273,3999,1089,886,31,31,0,31,0.00,0.00,0.00,0.00
2014-10-03 00:40:00,2,310,31,0.00,2,2,0,2,230,627,111,282,31,31,0,31,0.00,0.00,0.00,0.00
2014-10-03 00:50:00,2,239,33,0.00,2,2,0,2,223,257,10,240,31,34,1,34,0.00,0.00,0.00,0.00
2014-10-03 01:00:00,2,203,34,0.00,2,2,0,2,191,217,9,204,34,34,0,34,0.00,0.00,0.00,0.00
2014-10-03 01:10:00,2,208,34,0.00,2,2,0,2,194,225,10,205,34,34,0,34,0.00,0.00,0.00,0.00
2014-10-03 01:20:00,2,222,34,0.00,2,2,0,2,203,240,12,221,34,34,0,34,0.00,0.00,0.00,0.00
2014-10-03 01:30:00,2,264,34,0.00,2,2,0,2,231,281,16,267,33,34,0,34,0.00,0.00,0.00,0.00
2014-10-03 01:40:00,2,274,33,0.00,2,2,0,2,227,336,32,272,33,33,0,33,0.00,0.00,0.00,0.00
2014-10-03 01:50:00,2,272,31,0.00,2,2,0,2,244,293,13,274,30,33,1,32,0.00,0.00,0.00,0.00
2014-10-03 02:00:00,2,280,32,0.00,2,2,0,2,263,298,11,280,30,32,1,32,0.00,0.00,0.00,0.00
2014-10-03 02:10:00,2,287,31,0.00,2,2,0,2,256,327,23,284,30,33,1,30,0.00,0.00,0.00,0.00
2014-10-03 02:20:00,2,287,33,0.00,2,2,0,2,265,316,16,278,33,33,0,33,0.00,0.00,0.00,0.00
2014-10-03 02:30:00,2,361,33,0.00,2,2,0,2,271,412,42,382,33,33,0,33,0.00,0.00,0.00,0.00
2014-10-03 02:40:00,2,414,32,0.00,2,2,0,2,256,559,87,406,30,33,1,32,0.00,0.00,0.00,0.00
2014-10-03 02:50:00,2,390,32,0.00,2,2,0,2,320,501,61,363,32,32,0,32,0.00,0.00,0.00,0.00
2014-10-03 03:00:00,2,528,32,0.00,2,2,0,2,433,600,59,546,32,32,0,32,0.00,0.00,0.00,0.00
2014-10-03 03:10:00,2,493,61,0.00,2,2,0,2,376,697,105,447,40,77,17,71,0.00,0.00,0.00,0.00
2014-10-03 03:20:00,2,1389,53,0.00,2,2,0,2,846,2770,591,1022,32,77,21,52,0.00,0.00,0.00,0.00
2014-10-03 03:30:00,2,1850,21,0.00,2,2,0,2,1205,2927,521,1719,20,32,4,20,0.00,0.00,0.00,0.00
2014-10-03 03:40:00,2,1050,20,0.00,2,2,0,2,748,1532,227,1027,20,20,0,20,0.00,0.00,0.00,0.00
2014-10-03 03:50:00,2,1520,20,0.00,2,2,0,2,1240,2027,216,1534,20,20,0,20,0.00,0.00,0.00,0.00
2014-10-03 04:00:00,2,1498,20,0.00,2,2,0,2,1284,1815,169,1434,20,20,0,20,0.00,0.00,0.00,0.00
2014-10-03 04:10:00,2,1952,30,0.01,2,2,0,2,1112,3146,587,1904,20,41,10,30,0.00,0.05,0.02,0.00
2014-10-03 04:20:00,2,1128,33,0.01,2,2,0,2,763,1585,268,1079,20,71,16,30,0.00,0.05,0.02,0.00
2014-10-03 04:30:00,2,1482,34,0.00,2,2,0,2,731,2672,628,1196,30,71,12,30,0.00,0.00,0.00,0.00
2014-10-03 04:40:00,2,1871,22,0.00,2,2,0,2,1356,2865,387,1812,20,40,6,20,0.00,0.00,0.00,0.00
2014-10-03 04:50:00,2,1385,64,0.01,2,2,0,2,1037,1715,189,1415,40,77,15,71,0.00,0.05,0.02,0.00
2014-10-03 05:00:00,2,1073,75,0.00,2,2,0,2,922,1356,140,1046,71,77,3,77,0.00,0.00,0.00,0.00
2014-10-03 05:10:00,2,1044,75,0.03,2,2,0,2,894,1359,136,992,71,77,3,77,0.00,0.05,0.03,0.03
2014-10-03 05:20:00,2,1055,75,0.23,2,2,0,2,947,1248,97,1034,71,77,3,77,0.05,0.50,0.14,0.20
2014-10-03 05:30:00,2,2099,71,0.24,2,2,0,2,1414,2652,390,2066,71,71,0,71,0.10,0.55,0.13,0.23
2014-10-03 05:40:00,2,3498,73,0.01,2,2,0,2,2719,4060,441,3611,71,77,3,71,0.00,0.05,0.02,0.00
2014-10-03 05:50:00,2,5144,58,0.00,2,2,0,2,3188,7386,1139,5144,20,77,25,71,0.00,0.00,0.00,0.00
2014-10-03 06:00:00,2,3728,52,0.00,2,2,0,2,1870,6442,1303,3622,20,77,27,71,0.00,0.00,0.00,0.00
2014-10-03 06:10:00,2,2721,75,0.00,2,2,0,2,1977,4263,681,2496,71,77,3,77,0.00,0.00,0.00,0.00
2014-10-03 06:20:00,2,2587,70,0.00,2,2,0,2,2020,3071,357,2726,20,77,17,77,0.00,0.00,0.00,0.00
2014-10-03 06:30:00,2,2671,10,0.00,2,2,0,2,1503,4468,985,2364,10,10,0,10,0.00,0.00,0.00,0.00
2014-10-03 06:40:00,2,4516,10,0.00,2,2,0,2,3903,5773,573,4302,10,10,0,10,0.00,0.00,0.00,0.00
2014-10-03 06:50:00,2,3876,10,0.00,2,2,0,2,2947,4877,656,3821,10,10,0,10,0.00,0.00,0.00,0.00
2014-10-03 07:00:00,2,5065,10,0.00,2,2,0,2,4086,6095,625,4999,10,10,0,10,0.00,0.00,0.00,0.00
2014-10-03 07:10:00,2,4855,10,0.00,2,2,0,2,2866,6430,1214,4990,10,10,0,10,0.00,0.00,0.00,0.00
2014-10-03 07:20:00,2,4944,10,0.00,2,2,0,2,3711,6129,864,5198,10,10,0,10,0.00,0.00,0.00,0.00
2014-10-03 07:30:00,2,3958,10,0.00,2,2,0,2,3045,5014,636,3918,10,10,0,10,0.00,0.00,0.00,0.00
2014-10-03 07:40:00,2,5041,10,0.00,2,2,0,2,3056,8244,1942,4066,10,10,0,10,0.00,0.00,0.00,0.00
2014-10-03 07:50:00,2,11934,10,0.00,2,2,0,2,8718,13415,1631,12634,10,10,0,10,0.00,0.00,0.00,0.00
2014-10-03 08:00:00,2,10511,1,0.00,2,2,0,2,7092,13147,2202,11206,0,10,3,0,0.00,0.00,0.00,0.00
2014-10-03 08:10:00,2,6228,8,0.00,2,2,0,2,5265,8232,931,5922,0,10,4,10,0.00,0.00,0.00,0.00
2014-10-03 08:20:00,2,3407,10,0.00,2,2,0,2,2154,4502,623,3608,10,10,0,10,0.00,0.00,0.00,0.00
2014-10-03 08:30:00,2,1394,10,0.00,2,2,0,2,831,2679,523,1178,10,10,0,10,0.00,0.00,0.00,0.00
2014-10-03 08:40:00,2,938,18,0.00,2,2,0,2,671,1285,201,957,10,30,10,10,0.00,0.00,0.00,0.00
2014-10-03 08:50:00,2,569,34,0.00,2,2,0,2,490,640,47,568,34,34,0,34,0.00,0.00,0.00,0.00
2014-10-03 09:00:00,2,674,34,0.00,2,2,0,2,526,948,113,648,34,34,0,34,0.00,0.00,0.00,0.00
2014-10-03 09:10:00,2,523,34,0.00,2,2,0,2,401,812,135,450,34,34,0,34,0.00,0.00,0.00,0.00
2014-10-03 09:20:00,2,666,43,0.00,2,2,0,2,423,1232,244,606,34,71,14,34,0.00,0.00,0.00,0.00
2014-10-03 09:30:00,2,550,34,0.00,2,2,0,2,441,723,78,536,34,34,0,34,0.00,0.00,0.00,0.00
2014-10-03 09:40:00,2,492,33,0.00,2,2,0,2,420,579,48,500,30,34,1,33,0.00,0.00,0.00,0.00
2014-10-03 09:50:00,2,700,32,0.00,2,2,0,2,496,875,111,696,30,33,2,32,0.00,0.00,0.00,0.00
2014-10-03 10:00:00,2,450,60,0.00,2,2,0,2,391,546,53,422,40,77,16,71,0.00,0.00,0.00,0.00
2014-10-03 10:10:00,2,400,42,0.00,2,2,0,2,373,428,16,403,33,77,18,33,0.00,0.00,0.00,0.00
2014-10-03 10:20:00,2,449,33,0.00,2,2,0,2,376,522,41,456,30,34,2,34,0.00,0.00,0.00,0.00
2014-10-03 10:30:00,2,370,32,0.00,2,2,0,2,315,459,52,346,30,34,2,32,0.00,0.00,0.00,0.00
2014-10-03 10:40:00,2,334,34,0.00,2,2,0,2,308,375,20,328,34,34,0,34,0.00,0.00,0.00,0.00
2014-10-03 10:50:00,2,428,34,0.00,2,2,0,2,370,505,34,430,34,34,0,34,0.00,0.00,0.00,0.00
2014-10-03 11:00:00,2,424,33,0.00,2,2,0,2,327,517,57,429,33,33,0,33,0.00,0.00,0.00,0.00
2014-10-03 11:10:00,2,352,33,0.00,2,2,0,2,302,492,50,339,33,33,0,33,0.00,0.00,0.00,0.00
2014-10-03 11:20:00,2,361,57,0.02,2,2,0,2,293,429,47,356,33,77,18,56,0.00,0.10,0.03,0.00
2014-10-03 11:30:00,2,298,77,0.07,2,2,0,2,284,321,12,296,77,77,0,77,0.00,0.15,0.04,0.08
2014-10-03 11:40:00,2,237,76,0.06,2,2,0,2,195,285,31,249,71,77,2,77,0.00,0.15,0.05,0.05
2014-10-03 11:50:00,2,207,76,0.01,2,2,0,2,191,240,15,202,71,77,2,77,0.00,0.05,0.02,0.00
2014-10-03 12:00:00,2,214,76,0.02,2,2,0,2,195,255,19,208,71,77,2,77,0.00,0.05,0.02,0.00
2014-10-03 12:10:00,2,259,77,0.07,2,2,0,2,229,287,19,256,77,77,0,77,0.00,0.10,0.03,0.05
2014-10-03 12:20:00,2,193,46,0.00,2,2,0,2,172,209,10,195,33,77,20,34,0.00,0.00,0.00,0.00
2014-10-03 12:30:00,2,200,33,0.00,2,2,0,2,157,235,24,204,33,33,0,33,0.00,0.00,0.00,0.00
2014-10-03 12:40:00,2,198,72,0.02,2,2,0,2,181,222,12,197,33,78,13,78,0.00,0.05,0.02,0.00
2014-10-03 12:50:00,2,171,78,0.03,2,2,0,2,150,216,18,169,78,78,0,78,0.00,0.05,0.03,0.03
2014-10-03 13:00:00,2,146,78,0.04,2,2,0,2,127,167,12,145,78,78,0,78,0.00,0.05,0.02,0.05
2014-10-03 13:10:00,2,130,78,0.03,2,2,0,2,125,136,4,129,78,78,0,78,0.00,0.05,0.02,0.05
2014-10-03 13:20:00,2,154,77,0.00,2,2,0,2,136,194,21,140,77,77,0,77,0.00,0.00,0.00,0.00
2014-10-03 13:30:00,2,159,78,0.03,2,2,0,2,138,176,11,160,77,78,0,78,0.00,0.05,0.02,0.05
2014-10-03 13:40:00,2,168,78,0.01,2,2,0,2,158,175,5,166,78,78,0,78,0.00,0.05,0.02,0.00
2014-10-03 13:50:00,2,161,78,0.02,2,2,0,2,152,167,5,162,78,78,0,78,0.00,0.05,0.02,0.00
2014-10-03 14:00:00,2,180,69,0.01,2,2,0,2,163,198,9,179,33,78,18,78,0.00,0.05,0.02,0.00
2014-10-03 14:10:00,2,199,33,0.00,2,2,0,2,192,210,5,200,33,33,0,33,0.00,0.00,0.00,0.00
2014-10-03 14:20:00,2,187,33,0.00,2,2,0,2,170,200,9,188,33,33,0,33,0.00,0.00,0.00,0.00
2014-10-03 14:30:00,2,201,33,0.00,2,2,0,2,166,236,24,204,33,33,0,33,0.00,0.00,0.00,0.00
2014-10-03 14:40:00,2,289,32,0.00,2,2,0,2,248,346,31,276,30,33,1,32,0.00,0.00,0.00,0.00
2014-10-03 14:50:00,2,249,32,0.00,2,2,0,2,221,270,17,252,32,32,0,32,0.00,0.00,0.00,0.00
2014-10-03 15:00:00,2,184,32,0.00,2,2,0,2,161,216,17,179,30,33,1,32,0.00,0.00,0.00,0.00
2014-10-03 15:10:00,2,244,33,0.00,2,2,0,2,227,277,14,238,33,33,0,33,0.00,0.00,0.00,0.00
2014-10-03 15:20:00,2,203,33,0.00,2,2,0,2,189,243,16,199,33,33,0,33,0.00,0.00,0.00,0.00
2014-10-03 15:30:00,2,202,33,0.00,2,2,0,2,190,213,8,202,30,34,1,33,0.00,0.00,0.00,0.00
2014-10-03 15:40:00,2,185,33,0.00,2,2,0,2,179,190,3,185,30,34,1,34,0.00,0.00,0.00,0.00
2014-10-03 15:50:00,2,189,33,0.00,2,2,0,2,180,204,7,189,33,33,0,33,0.00,0.00,0.00,0.00
2014-10-03 16:00:00,2,176,33,0.00,2,2,0,2,162,194,10,175,33,33,0,33,0.00,0.00,0.00,0.00
2014-10-03 16:10:00,2,182,33,0.00,2,2,0,2,147,221,26,172,33,33,0,33,0.00,0.00,0.00,0.00
2014-10-03 16:20:00,2,164,37,0.00,2,2,0,2,112,211,37,178,33,71,11,33,0.00,0.00,0.00,0.00
2014-10-03 16:30:00,2,157,77,0.05,2,2,0,2,141,171,9,158,71,78,2,78,0.05,0.05,0.00,0.05
2014-10-03 16:40:00,2,181,78,0.02,2,2,0,2,141,333,52,166,78,78,0,78,0.00,0.05,0.02,0.00
2014-10-03 16:50:00,2,170,33,0.00,2,2,0,2,144,215,27,157,33,33,0,33,0.00,0.00,0.00,0.00
2014-10-03 17:00:00,2,192,33,0.00,2,2,0,2,158,226,29,192,33,33,0,33,0.00,0.00,0.00,0.00
2014-10-03 17:10:00,2,231,33,0.00,2,2,0,2,212,251,9,232,33,33,0,33,0.00,0.00,0.00,0.00
2014-10-03 17:20:00,2,218,32,0.00,2,2,0,2,195,245,14,215,32,33,0,32,0.00,0.00,0.00,0.00
2014-10-03 17:30:00,2,228,31,0.00,2,2,0,2,215,254,14,221,30,32,1,30,0.00,0.00,0.00,0.00
2014-10-03 17:40:00,2,209,30,0.00,2,2,0,2,194,225,9,208,30,32,1,30,0.00,0.00,0.00,0.00
2014-10-03 17:50:00,2,232,33,0.00,2,2,0,2,207,252,15,237,30,33,1,33,0.00,0.00,0.00,0.00
2014-10-03 18:00:00,2,211,33,0.00,2,2,0,2,189,231,12,214,33,33,0,33,0.00,0.00,0.00,0.00
2014-10-03 18:10:00,2,215,33,0.00,2,2,0,2,190,252,19,210,33,33,0,33,0.00,0.00,0.00,0.00
2014-10-03 18:20:00,2,284,33,0.00,2,2,0,2,226,329,29,288,33,33,0,33,0.00,0.00,0.00,0.00
2014-10-03 18:30:00,2,304,33,0.00,2,2,0,2,248,383,43,289,32,33,0,33,0.00,0.00,0.00,0.00
2014-10-03 18:40:00,2,365,32,0.00,2,2,0,2,313,413,33,364,32,32,0,32,0.00,0.00,0.00,0.00
2014-10-03 18:50:00,2,781,32,0.00,2,2,0,2,322,1360,371,696,32,32,0,32,0.00,0.00,0.00,0.00
2014-10-03 19:00:00,2,6769,27,0.00,2,2,0,2,747,18865,5489,4494,20,32,6,32,0.00,0.00,0.00,0.00
2014-10-03 19:10:00,2,8360,20,0.00,2,2,0,2,5776,14035,2578,8339,20,20,0,20,0.00,0.00,0.00,0.00
2014-10-03 19:20:00,2,5367,20,0.00,2,2,0,2,2584,7772,1909,5922,20,20,0,20,0.00,0.00,0.00,0.00
2014-10-03 19:30:00,2,2884,20,0.00,2,2,0,2,1795,5798,1256,2303,20,20,0,20,0.00,0.00,0.00,0.00
2014-10-03 19:40:00,2,2366,20,0.00,2,2,0,2,1322,4366,1025,1963,20,20,0,20,0.00,0.00,0.00,0.00
2014-10-03 19:50:00,2,920,25,0.00,2,2,0,2,587,1840,346,878,20,34,6,20,0.00,0.00,0.00,0.00
2014-10-03 20:00:00,2,768,34,0.00,2,2,0,2,597,1159,153,738,34,34,0,34,0.00,0.00,0.00,0.00
2014-10-03 20:10:00,2,12236,32,0.00,2,2,0,2,901,26720,9965,12905,30,34,2,34,0.00,0.00,0.00,0.00
2014-10-03 20:20:00,2,9543,25,0.00,2,2,0,2,4333,20357,4880,7678,20,30,5,25,0.00,0.00,0.00,0.00
2014-10-03 20:30:00,2,15816,20,0.00,2,2,0,2,6208,29595,7235,13102,20,20,0,20,0.00,0.00,0.00,0.00
2014-10-03 20:40:00,2,5360,59,0.01,2,2,0,2,2788,8137,1579,5495,20,77,25,74,0.00,0.05,0.02,0.00
2014-10-03 20:50:00,2,8603,78,0.00,2,2,0,2,6820,9942,1053,8626,77,78,0,78,0.00,0.00,0.00,0.00
2014-10-03 21:00:00,2,9085,32,0.00,2,2,0,2,6548,12633,2403,7980,20,78,23,20,0.00,0.00,0.00,0.00
2014-10-03 21:10:00,2,17580,36,0.00,2,2,0,2,11015,25032,3932,16882,20,78,25,20,0.00,0.00,0.00,0.00
2014-10-03 21:20:00,2,12587,8,0.00,2,2,0,2,8540,21446,3548,11245,0,20,10,0,0.00,0.00,0.00,0.00
2014-10-03 21:30:00,2,25217,0,0.00,2,2,0,2,13934,35966,7343,24662,0,0,0,0,0.00,0.00,0.00,0.00
2014-10-03 21:40:00,2,13623,0,0.00,2,2,0,2,11995,15348,1046,13752,0,0,0,0,0.00,0.00,0.00,0.00
2014-10-03 21:50:00,2,13189,0,0.00,2,2,0,2,11658,15172,992,13159,0,0,0,0,0.00,0.00,0.00,0.00
2014-10-03 22:00:00,2,10393,0,0.00,2,2,0,2,8817,12087,1040,10235,0,0,0,0,0.00,0.00,0.00,0.00
2014-10-03 22:10:00,2,10625,0,0.00,2,2,0,2,4345,13091,2679,12332,0,0,0,0,0.00,0.00,0.00,0.00
2014-10-03 22:20:00,2,4183,66,0.02,2,2,0,2,2029,7883,1755,3577,10,78,19,71,0.00,0.20,0.06,0.00
2014-10-03 22:30:00,2,878,20,0.00,2,2,0,2,459,2085,528,672,10,34,12,10,0.00,0.00,0.00,0.00
2014-10-03 22:40:00,2,664,34,0.00,2,2,0,2,432,865,117,640,34,34,0,34,0.00,0.00,0.00,0.00
2014-10-03 22:50:00,2,681,34,0.00,2,2,0,2,464,1145,200,602,34,34,0,34,0.00,0.00,0.00,0.00
2014-10-03 23:00:00,2,1199,33,0.00,2,2,0,2,744,2029,380,1136,20,34,4,34,0.00,0.00,0.00,0.00
2014-10-03 23:10:00,2,1060,30,0.00,2,2,0,2,644,1893,313,958,20,34,5,30,0.00,0.00,0.00,0.00
2014-10-03 23:20:00,2,5274,23,0.00,2,2,0,2,1940,9399,2174,4555,20,30,5,20,0.00,0.00,0.00,0.00
2014-10-03 23:30:00,2,14754,20,0.00,2,2,0,2,11036,20093,3262,14675,20,20,0,20,0.00,0.00,0.00,0.00
2014-10-03 23:40:00,2,20808,20,0.00,2,2,0,2,17957,27282,2952,19996,20,20,0,20,0.00,0.00,0.00,0.00
2014-10-03 23:50:00,2,30624,20,0.00,2,2,0,2,26421,36834,3738,29388,20,20,0,20,0.00,0.00,0.00,0.00
